This is the latest recevied weather packets stored in our database for station/object OK3FM-14. If no packets are shown the sender has not sent any weather packets the latest 10 day(s).
| Time | Temp. | Humidity | Pressure | Rain* | Wind** | Luminosity | Snow |
|---|---|---|---|---|---|---|---|
| 1787956049 | 17.78° C | 94% | 1016.7 hPa | - | - | - | - |
| 1787955459 | 17.78° C | 95% | 1016.6 hPa | - | - | - | - |
| 1787954847 | 17.78° C | 95% | 1016.4 hPa | - | - | - | - |
| 1787954247 | 17.78° C | 94% | 1016.3 hPa | - | - | - | - |
| 1787953647 | 17.78° C | 93% | 1016.5 hPa | - | - | - | - |
| 1787952447 | 17.78° C | 92% | 1016.7 hPa | - | - | - | - |
| 1787951847 | 18.33° C | 89% | 1016.7 hPa | - | - | - | - |
| 1787951247 | 18.33° C | 89% | 1016.3 hPa | - | - | - | - |
| 1787950649 | 18.33° C | 87% | 1016.2 hPa | - | - | - | - |
| 1787950047 | 18.33° C | 87% | 1015.8 hPa | - | - | - | - |
| 1787949447 | 18.33° C | 85% | 1015.8 hPa | - | - | - | - |
| 1787948847 | 18.33° C | 85% | 1015.8 hPa | - | - | - | - |
| 1787948247 | 18.33° C | 87% | 1015.5 hPa | - | - | - | - |
| 1787947647 | 18.33° C | 87% | 1015.5 hPa | - | - | - | - |
| 1787947047 | 18.33° C | 85% | 1015.7 hPa | - | - | - | - |
| 1787946448 | 18.33° C | 83% | 1016 hPa | - | - | - | - |
| 1787945847 | 18.33° C | 83% | 1015.9 hPa | - | - | - | - |
| 1787945247 | 18.33° C | 81% | 1015.1 hPa | - | - | - | - |
| 1787944648 | 18.89° C | 79% | 1014.8 hPa | - | - | - | - |
| 1787944048 | 18.89° C | 78% | 1014.6 hPa | - | - | - | - |
| 1787943447 | 18.89° C | 76% | 1014.2 hPa | - | - | - | - |
| 1787942847 | 18.89° C | 78% | 1014.1 hPa | - | - | - | - |
| 1787942247 | 18.89° C | 79% | 1014.1 hPa | - | - | - | - |
| 1787941647 | 18.89° C | 80% | 1013.9 hPa | - | - | - | - |
| 1787941047 | 18.89° C | 80% | 1014.3 hPa | - | - | - | - |
* Rain since midnight (hover to see other rain measurements)
** Current wind speed in m/s (hover to see current wind gust speed)